Wind_Speed
48 50 46 39 37 39 40 41 39 38 40 41 41 37 34 32 29 27 25 24 23 22 21 20 17 17 17 16 16 16 17 19 21 23 24 25 26 27 29 32 32 30 30
47 46 37 33 33 36 39 41 41 40 41 41 39 36 35 32 29 26 25 24 22 21 20 18 17 17 17 16 16 16 17 20 22 24 24 23 24 27 29 31 33 32 32
39 36 33 32 36 38 39 42 43 43 42 40 39 38 37 35 32 29 27 25 24 22 20 20 20 19 19 19 18 17 18 20 23 25 25 23 23 26 28 30 32 33 33
31 21 22 29 36 40 41 43 43 42 39 38 37 35 33 31 30 28 27 26 24 22 22 22 22 22 23 23 22 20 19 20 23 25 26 26 25 24 26 30 31 33 33
32 31 29 32 36 39 40 42 36 33 33 32 33 30 28 27 27 27 26 25 24 24 24 25 26 27 28 27 25 24 22 22 23 25 26 26 26 25 25 26 30 32 32
33 31 29 31 35 37 38 36 31 30 32 32 33 31 29 27 27 29 29 28 28 27 26 27 29 31 33 33 30 27 25 24 24 25 26 26 25 24 24 24 27 30 31
31 30 30 32 35 37 37 37 36 35 35 36 37 37 34 31 30 31 31 32 33 33 32 31 32 33 34 34 32 30 28 27 26 25 25 25 24 24 24 25 26 28 30
37 36 36 38 40 41 42 42 42 42 42 42 42 42 41 39 38 37 36 36 37 38 38 37 37 36 35 34 34 32 30 29 27 26 25 24 24 24 24 25 26 28 30
44 44 44 44 45 47 48 49 50 50 50 50 50 49 49 48 47 47 46 44 43 42 42 40 38 38 38 37 35 34 33 30 28 27 26 24 23 23 23 23 25 26 28
48 50 50 51 51 52 53 54 56 56 56 57 57 57 57 56 55 54 54 54 53 50 47 44 40 39 39 39 38 36 34 31 29 28 27 24 22 22 22 22 22 24 26
51 53 54 55 56 56 57 58 59 60 61 61 61 61 61 62 62 62 61 61 60 58 54 50 48 46 43 41 40 37 35 33 31 31 29 26 23 21 20 21 21 21 23
54 55 56 57 58 59 59 60 61 62 63 64 64 64 63 63 64 65 66 66 65 63 59 54 50 51 49 44 41 38 36 33 31 30 30 27 24 21 20 20 20 20 21
58 61 63 63 64 64 65 65 66 67 67 67 67 68 68 68 68 68 69 71 70 68 64 58 52 51 51 48 44 41 38 34 31 29 29 27 24 22 21 20 20 19 19
63 64 65 65 67 68 69 70 71 73 74 74 74 74 75 75 75 74 74 75 75 72 69 64 59 54 53 53 50 46 43 37 32 30 29 27 25 23 22 20 19 18 18
68 70 72 74 76 77 77 77 77 77 77 77 77 78 79 80 80 81 81 81 79 74 72 69 65 61 59 60 58 53 49 42 35 32 31 30 27 25 23 21 19 18 18
74 77 79 80 80 78 76 72 67 63 59 57 56 57 59 62 66 72 78 81 82 81 78 77 74 68 62 61 62 58 53 47 40 35 33 32 30 27 24 23 21 19 18
76 76 73 69 63 57 52 47 42 39 37 35 34 34 35 37 39 43 49 55 61 67 72 76 75 70 65 60 57 57 56 52 45 40 36 33 32 29 26 24 23 20 18
69 62 55 50 46 43 40 39 37 37 36 35 35 36 36 35 34 32 30 31 32 37 45 55 63 65 66 64 57 52 53 53 49 44 40 35 32 30 27 25 24 21 17
54 49 47 45 44 43 42 43 43 43 44 43 43 43 43 42 40 37 35 32 29 28 28 31 38 49 57 63 64 59 54 52 50 47 42 37 34 31 28 27 25 22 18
48 48 49 50 49 48 48 48 48 48 48 46 46 46 46 46 43 41 39 37 34 30 28 26 26 29 39 52 60 63 60 57 54 51 47 42 38 34 31 29 27 24 21
50 52 53 54 54 53 53 53 52 52 50 48 48 47 46 45 42 40 37 36 34 32 29 28 27 27 28 35 47 57 60 56 55 54 51 48 43 38 35 32 30 27 23
53 56 57 57 57 56 55 55 55 54 53 51 49 48 46 44 41 39 37 37 36 34 33 31 29 28 29 30 36 47 56 57 55 55 55 51 46 42 38 34 33 30 25
56 57 58 58 57 56 55 54 53 53 52 51 49 47 45 42 41 40 39 39 39 37 36 33 30 29 29 29 31 41 54 57 54 52 52 51 49 46 41 37 34 32 27
58 59 58 56 54 53 53 52 51 50 49 47 45 44 42 40 39 39 37 37 37 38 37 34 31 30 29 29 29 37 53 59 53 51 51 51 50 47 43 38 35 32 28
59 60 58 56 53 52 50 49 47 46 44 42 40 38 38 37 36 36 35 34 35 35 34 33 30 29 29 28 28 32 48 59 53 50 51 51 49 44 40 37 33 31 28
60 59 58 56 53 50 47 44 41 39 37 34 32 31 31 32 32 31 31 31 33 33 33 32 29 27 28 27 27 29 42 56 54 49 47 46 44 40 37 33 30 29 28
Wind_Direction
275 274 268 264 273 276 280 280 285 291 296 299 300 295 288 287 287 286 285 287 288 286 285 281 273 272 273 274 283 294 303 311 318 317 309 299 290 280 270 265 265 267 266
271 270 263 264 271 270 274 280 285 290 294 297 296 292 287 286 286 282 280 279 278 278 276 268 264 264 264 270 281 294 304 314 321 324 319 305 293 284 275 268 264 265 266
266 252 247 265 270 275 276 282 286 288 290 292 293 291 290 289 288 284 281 278 276 276 272 265 264 264 262 268 277 290 304 312 318 324 326 316 298 286 279 272 266 263 264
278 251 262 278 282 286 288 290 287 283 285 290 294 293 290 289 287 284 280 273 267 271 271 269 265 266 269 273 277 281 293 306 314 320 325 324 312 295 283 275 268 262 261
291 297 299 292 290 292 291 292 287 279 280 286 293 297 298 297 293 287 282 278 274 276 279 278 273 271 274 276 279 280 285 296 306 313 319 323 321 308 294 279 268 262 258
301 304 300 294 293 294 292 297 297 289 284 288 292 293 295 294 291 288 284 282 281 280 280 282 281 278 276 277 277 278 281 287 296 304 312 319 321 313 300 287 272 262 258
305 307 302 296 294 294 292 292 295 292 288 287 288 288 287 286 283 282 283 284 284 283 280 281 283 282 280 278 277 276 280 284 289 296 305 314 318 315 304 291 276 264 257
305 305 302 296 293 292 290 289 289 288 286 284 284 283 282 280 279 278 278 278 279 281 281 283 284 283 279 277 277 277 280 283 286 290 298 308 315 315 307 295 280 266 257
301 300 297 294 291 289 287 286 286 286 285 284 283 281 280 278 277 276 275 273 274 276 278 280 281 280 276 273 274 275 276 278 282 285 291 301 311 315 311 300 286 270 259
296 295 294 292 290 287 285 283 282 281 281 280 279 279 278 278 276 275 275 275 275 275 274 273 272 275 274 269 267 269 270 271 276 280 285 292 301 308 309 306 294 278 265
294 293 292 291 289 287 285 282 280 279 278 277 276 274 274 274 274 274 274 275 276 276 275 273 268 268 271 267 263 262 263 266 272 276 279 284 291 299 308 310 301 287 273
294 293 292 291 290 288 286 283 280 279 278 276 274 273 271 271 272 272 272 272 272 273 272 272 269 265 267 267 261 257 258 262 268 273 275 277 283 293 304 310 307 296 280
295 294 294 293 291 289 286 283 281 278 276 274 273 272 270 269 269 269 269 269 269 269 269 268 267 265 262 262 261 256 254 258 264 270 271 272 277 286 296 306 308 303 288
300 298 297 295 292 289 286 284 281 278 275 273 271 270 269 268 267 267 267 267 267 267 267 266 266 266 261 257 257 256 252 253 259 265 268 269 272 279 287 297 302 302 294
300 299 297 295 293 291 288 286 283 281 278 275 272 270 268 267 266 264 264 264 264 264 264 264 265 269 267 257 253 253 250 248 253 261 266 268 270 273 280 287 291 292 289
304 302 300 297 295 293 291 290 289 288 287 285 283 279 274 271 268 265 264 263 263 262 261 260 262 265 265 258 250 249 246 242 247 256 263 266 267 269 273 279 281 282 279
308 304 302 300 300 299 298 297 296 295 294 293 292 290 287 283 278 272 268 265 263 261 259 258 259 259 257 254 248 243 240 239 242 249 257 262 263 264 267 272 275 276 271
311 310 310 309 307 304 302 300 297 294 291 289 287 286 286 287 286 282 277 271 266 260 256 253 253 252 249 248 246 241 238 237 239 245 251 256 259 261 263 267 270 271 266
315 314 312 310 307 304 302 299 296 294 291 288 286 285 284 283 280 276 273 270 267 263 259 255 252 248 243 241 241 241 239 239 239 241 245 248 253 256 259 263 265 265 260
314 313 311 309 307 304 301 298 296 293 291 288 286 284 283 282 278 273 269 265 263 262 260 258 258 255 246 238 235 234 236 238 239 240 242 244 248 251 254 258 260 260 254
313 312 310 308 306 303 299 296 294 292 290 287 284 283 282 279 276 270 265 259 256 255 256 257 257 258 256 246 235 227 225 227 233 237 239 241 243 245 248 252 254 255 251
314 312 310 308 305 302 298 294 292 290 288 285 282 281 280 277 272 266 261 255 252 251 252 254 256 259 261 259 245 227 217 216 224 229 232 235 237 238 241 244 248 249 246
318 316 313 310 307 303 300 296 294 291 288 285 282 279 277 273 269 265 259 254 250 249 249 249 250 255 260 261 254 232 216 210 212 217 221 226 230 232 234 237 241 243 240
321 318 316 313 310 306 302 299 296 293 290 286 282 278 274 270 267 264 259 253 249 246 243 241 242 249 255 259 257 238 219 209 205 207 214 219 224 226 228 230 233 235 235
325 323 320 318 314 311 306 301 297 295 292 288 283 277 273 269 265 260 255 251 246 241 237 235 239 247 252 258 256 246 223 210 203 202 209 214 217 219 220 222 224 226 228
331 329 326 323 319 315 312 306 302 300 297 292 286 279 274 270 265 259 252 245 238 234 229 228 235 245 251 256 256 246 224 209 200 198 200 204 208 210 212 213 215 218 220
Height
5858 5851 5844 5840 5844 5845 5843 5843 5842 5842 5842 5840 5838 5836 5835 5833 5831 5831 5830 5829 5828 5828 5828 5828 5828 5827 5826 5826 5825 5824 5823 5821 5819 5817 5815 5813 5811 5811 5811 5811 5812 5813 5814
5843 5838 5830 5827 5836 5838 5837 5836 5836 5835 5835 5834 5832 5830 5828 5826 5825 5825 5824 5824 5824 5823 5823 5823 5823 5822 5822 5821 5820 5819 5817 5815 5812 5811 5809 5808 5806 5803 5803 5803 5805 5806 5806
5828 5823 5824 5825 5831 5831 5830 5830 5830 5828 5828 5828 5826 5824 5821 5820 5820 5820 5820 5819 5819 5818 5818 5818 5818 5817 5817 5816 5815 5814 5812 5810 5807 5804 5803 5801 5800 5797 5796 5795 5797 5798 5799
5816 5801 5813 5825 5827 5826 5825 5825 5821 5819 5821 5820 5819 5817 5815 5814 5813 5813 5813 5813 5813 5813 5813 5813 5813 5812 5812 5812 5810 5809 5807 5805 5803 5799 5796 5794 5792 5791 5790 5788 5788 5790 5791
5820 5815 5820 5823 5822 5820 5818 5816 5811 5811 5812 5812 5812 5810 5808 5807 5806 5806 5806 5807 5807 5807 5807 5807 5807 5807 5807 5806 5805 5803 5801 5799 5797 5794 5791 5788 5785 5782 5781 5781 5780 5781 5783
5822 5820 5819 5818 5816 5814 5812 5810 5806 5806 5805 5805 5804 5803 5802 5801 5800 5799 5799 5799 5800 5800 5801 5801 5801 5801 5800 5800 5798 5797 5795 5792 5790 5787 5785 5782 5779 5776 5774 5773 5773 5773 5775
5819 5817 5815 5813 5811 5809 5806 5804 5802 5801 5799 5798 5796 5794 5794 5793 5792 5791 5792 5791 5791 5790 5792 5793 5793 5792 5792 5791 5790 5790 5788 5786 5783 5781 5778 5775 5772 5769 5767 5766 5766 5766 5767
5814 5812 5809 5807 5804 5801 5798 5796 5794 5792 5790 5788 5786 5785 5784 5783 5782 5782 5783 5782 5781 5781 5782 5783 5783 5783 5783 5782 5782 5781 5780 5779 5777 5774 5771 5769 5765 5763 5761 5759 5758 5759 5760
5807 5805 5802 5799 5795 5791 5787 5784 5782 5780 5777 5775 5774 5772 5771 5771 5770 5770 5769 5770 5771 5771 5771 5773 5773 5772 5773 5773 5773 5773 5772 5771 5770 5767 5765 5762 5759 5757 5755 5752 5750 5751 5752
5800 5795 5790 5786 5782 5778 5774 5771 5767 5765 5762 5760 5759 5757 5756 5755 5755 5755 5755 5754 5756 5758 5760 5761 5762 5762 5762 5762 5763 5764 5764 5763 5762 5760 5758 5756 5754 5751 5748 5746 5744 5743 5744
5790 5784 5778 5772 5767 5763 5759 5755 5751 5748 5745 5743 5741 5740 5739 5738 5737 5738 5739 5739 5739 5741 5744 5747 5750 5751 5751 5751 5752 5753 5754 5755 5754 5753 5751 5749 5747 5745 5742 5739 5737 5735 5735
5779 5772 5765 5759 5753 5747 5742 5737 5733 5730 5727 5724 5722 5721 5720 5719 5719 5719 5720 5720 5722 5724 5726 5730 5733 5736 5739 5740 5741 5743 5744 5745 5745 5744 5743 5741 5740 5738 5735 5732 5730 5728 5728
5766 5759 5752 5745 5738 5731 5725 5720 5715 5710 5707 5705 5703 5701 5700 5700 5699 5699 5700 5701 5702 5704 5707 5711 5715 5719 5723 5727 5729 5731 5733 5735 5736 5735 5734 5733 5733 5731 5729 5726 5724 5722 5721
5750 5742 5735 5727 5719 5712 5705 5699 5693 5688 5684 5681 5680 5679 5677 5677 5677 5678 5679 5680 5682 5684 5688 5692 5696 5701 5706 5711 5715 5718 5721 5724 5726 5726 5726 5725 5725 5724 5722 5720 5718 5716 5715
5733 5724 5715 5705 5695 5687 5679 5672 5666 5661 5657 5654 5652 5651 5651 5650 5651 5653 5654 5657 5660 5663 5667 5670 5675 5681 5687 5693 5698 5703 5708 5712 5715 5716 5717 5717 5717 5717 5716 5714 5713 5711 5710
5713 5702 5690 5679 5668 5659 5650 5642 5637 5632 5628 5626 5624 5623 5622 5623 5623 5625 5627 5630 5635 5639 5644 5648 5653 5660 5666 5673 5679 5686 5693 5698 5703 5705 5707 5708 5708 5709 5710 5709 5707 5706 5704
5691 5677 5664 5653 5643 5635 5628 5623 5619 5615 5612 5610 5608 5606 5604 5603 5603 5603 5604 5606 5609 5613 5618 5624 5630 5638 5647 5654 5661 5667 5675 5682 5689 5693 5696 5698 5700 5701 5703 5703 5702 5700 5698
5666 5655 5645 5637 5630 5623 5617 5612 5608 5605 5602 5599 5597 5595 5593 5592 5591 5591 5591 5592 5593 5594 5597 5600 5605 5613 5623 5634 5643 5650 5657 5665 5673 5680 5685 5688 5690 5692 5695 5696 5696 5695 5693
5651 5642 5634 5626 5619 5613 5607 5602 5597 5593 5589 5587 5584 5582 5580 5579 5579 5579 5580 5581 5582 5583 5584 5585 5587 5592 5600 5611 5622 5632 5640 5649 5658 5665 5672 5677 5680 5683 5686 5689 5690 5690 5689
5639 5631 5623 5615 5608 5602 5595 5589 5584 5579 5575 5572 5569 5567 5565 5564 5564 5565 5567 5568 5569 5571 5573 5575 5577 5579 5583 5590 5600 5612 5623 5633 5642 5651 5658 5665 5670 5674 5677 5680 5683 5684 5684
5629 5620 5611 5602 5594 5587 5580 5574 5567 5562 5558 5555 5552 5550 5549 5548 5548 5550 5552 5553 5556 5559 5562 5564 5566 5568 5571 5575 5582 5592 5605 5616 5626 5635 5644 5652 5659 5664 5668 5672 5675 5678 5679
5617 5607 5596 5587 5578 5570 5562 5555 5549 5544 5540 5536 5534 5532 5531 5530 5531 5534 5537 5539 5542 5546 5549 5552 5555 5558 5560 5563 5568 5576 5588 5600 5611 5621 5630 5639 5647 5653 5658 5663 5667 5671 5673
5604 5592 5580 5570 5560 5551 5542 5535 5529 5523 5519 5516 5515 5513 5513 5513 5514 5517 5520 5524 5528 5532 5537 5541 5544 5548 5550 5553 5556 5562 5571 5583 5596 5606 5616 5626 5635 5642 5648 5653 5658 5663 5667
5590 5577 5565 5553 5543 5533 5524 5515 5509 5503 5499 5496 5495 5494 5494 5496 5497 5500 5503 5508 5513 5518 5523 5528 5533 5537 5540 5542 5545 5549 5557 5568 5581 5593 5604 5613 5622 5630 5638 5644 5649 5656 5661
5577 5563 5549 5536 5526 5515 5506 5498 5491 5485 5481 5479 5477 5477 5478 5480 5482 5485 5488 5493 5498 5504 5510 5516 5522 5526 5530 5532 5535 5537 5544 5555 5569 5582 5593 5602 5612 5621 5629 5636 5642 5649 5655
5565 5550 5535 5521 5509 5498 5489 5481 5475 5470 5466 5464 5463 5464 5464 5466 5468 5470 5474 5479 5486 5492 5499 5506 5512 5517 5520 5523 5525 5528 5533 5545 5559 5573 5583 5594 5605 5614 5622 5629 5635 5642 5649